Miami, FL

2:32 PM EDT on September 25, 2016 (GMT -0400)
Kendall-Tamiami Executive

Weather History for KTMB - July, 2013

Change the Weather History Date:

Monday, July 1, 2013

  Actual Average Record
Temperature  
Mean Temperature 82 °F -  
Max Temperature 90 °F 90 °F 96 °F (1998)
Min Temperature 75 °F 71 °F 69 °F (1989)
Cooling Degree Days 17    
Growing Degree Days 32 (Base 50)    
Moisture  
Dew Point 74 °F    
Average Humidity 79    
Maximum Humidity 90    
Minimum Humidity 61    
Precipitation  
Precipitation 0.32 in - - ()
Sea Level Pressure  
Sea Level Pressure 29.98 in    
Wind  
Wind Speed 7 mph (SSE)    
Max Wind Speed 16 mph    
Max Gust Speed 32 mph    
Visibility 9 miles    
Events Rain , Thunderstorm    
Averages and records for this station are not official NWS values.
T = Trace of Precipitation, MM = Missing Value Source: NWS Daily Summary

Daily Weather History Graph

Daily Weather History Graph

Search for Another Location

Airport or City:

Trip Planner

Search our weather history database for the weather conditions in past years. The results will help you decide how hot, cold, wet, or windy it might be!

Date:

Astronomy

Jul. 01, 2013 Rise Set
Actual Time 6:34 AM EDT 8:16 PM EDT
Civil Twilight 6:08 AM EDT 8:42 PM EDT
Nautical Twilight 5:37 AM EDT 9:13 PM EDT
Astronomical Twilight 5:04 AM EDT 9:46 PM EDT
Moon 1:41 AM EDT (7/1) 2:49 PM EDT (7/1)
Length of Visible Light 14h 34m
Length of Day
13h 42m
Waning Crescent, 35% of the Moon is Illuminated
Jul 1
Waning Crescent
Jul 8
New
Jul 15
First Quarter
Jul 22
Full
Jul 29
Last Quarter

Hourly Weather History & Observations

Time (EDT) Temp. Heat Index Dew Point Humidity Pressure Visibility Wind Dir Wind Speed Gust Speed Precip Events Conditions
12:53 AM 80.1 °F 84.2 °F 73.0 °F 79% 29.97 in 10.0 mi South 4.6 mph - N/A   Clear
1:53 AM 79.0 °F - 73.9 °F 84% 29.96 in 10.0 mi SSE 5.8 mph - N/A   Mostly Cloudy
2:53 AM 80.1 °F 85.1 °F 75.0 °F 85% 29.94 in 10.0 mi South 4.6 mph - N/A   Mostly Cloudy
3:53 AM 79.0 °F - 75.0 °F 88% 29.93 in 10.0 mi SE 3.5 mph - N/A   Clear
4:53 AM 80.1 °F 84.5 °F 73.9 °F 81% 29.94 in 10.0 mi SE 3.5 mph - N/A   Clear
5:53 AM 79.0 °F - 75.0 °F 88% 29.94 in 10.0 mi Calm Calm - N/A   Clear
6:53 AM 80.1 °F 85.1 °F 75.0 °F 85% 29.97 in 10.0 mi SSE 4.6 mph - N/A   Clear
7:53 AM 82.9 °F 90.2 °F 75.0 °F 77% 29.98 in 10.0 mi SSE 4.6 mph - N/A   Clear
8:53 AM 84.9 °F 92.1 °F 73.9 °F 69% 29.98 in 10.0 mi SSE 10.4 mph - N/A   Partly Cloudy
9:53 AM 86.0 °F 91.5 °F 71.1 °F 61% 29.98 in 10.0 mi SSE 12.7 mph 20.7 mph N/A   Clear
10:53 AM 86.0 °F 93.0 °F 73.0 °F 65% 29.98 in 10.0 mi SSE 10.4 mph 18.4 mph N/A   Scattered Clouds
11:53 AM 89.1 °F 98.0 °F 73.9 °F 61% 29.98 in 10.0 mi SSE 16.1 mph 23.0 mph N/A   Scattered Clouds
12:53 PM 89.1 °F 98.0 °F 73.9 °F 61% 29.99 in 10.0 mi SSE 15.0 mph 24.2 mph N/A   Mostly Cloudy
1:53 PM 88.0 °F 95.6 °F 73.0 °F 61% 29.97 in 10.0 mi South 13.8 mph 21.9 mph N/A   Mostly Cloudy
2:53 PM 87.1 °F 94.5 °F 73.0 °F 63% 29.96 in 10.0 mi SSE 15.0 mph 21.9 mph 0.00 in   Scattered Clouds
3:53 PM 84.0 °F 91.2 °F 73.9 °F 72% 29.96 in 10.0 mi SSE 11.5 mph - 0.01 in   Scattered Clouds
4:39 PM 78.8 °F - 73.4 °F 83% 29.97 in 1.8 mi SSW 16.1 mph 27.6 mph 0.11 in Rain Light Rain
4:49 PM 75.2 °F - 71.6 °F 89% 29.97 in 3.0 mi South 9.2 mph 32.2 mph 0.30 in Rain Rain
4:53 PM 77.0 °F - 72.0 °F 84% 29.97 in 5.0 mi South 9.2 mph 18.4 mph 0.30 in Rain Light Rain
5:12 PM 78.8 °F - 73.4 °F 83% 29.98 in 10.0 mi South 5.8 mph - 0.00 in Rain , Thunderstorm Light Thunderstorms and Rain
5:53 PM 77.0 °F - 72.0 °F 84% 29.99 in 10.0 mi WSW 5.8 mph - 0.01 in   Partly Cloudy
6:53 PM 78.1 °F - 73.9 °F 87% 30.00 in 10.0 mi ESE 3.5 mph - N/A   Mostly Cloudy
7:53 PM 79.0 °F - 75.0 °F 88% 30.00 in 10.0 mi SSE 3.5 mph - N/A   Partly Cloudy
8:53 PM 79.0 °F - 75.0 °F 88% 30.01 in 10.0 mi Calm Calm - N/A   Clear
9:53 PM 79.0 °F - 75.0 °F 88% 30.02 in 10.0 mi Calm Calm - N/A   Clear
11:53 PM 79.0 °F - 75.9 °F 90% 30.05 in 10.0 mi Calm Calm - N/A   Clear